[[{"header":{"parameterUnit":"m.s-1","parameterCategory":1,"la1":30.2991,"la2":30.254,"lo1":-89.0895,"lo2":-89.0444,"dy":0.0017,"dx":0.0017,"nx":28,"ny":28,"refTime":"2024-05-25T03:00:00:Z","depth":0,"parameterNumber":2,"parameterNumberName":"U-component_of_WINDS"},"data":[0,0,0,0,0,0,0,0,0,0,0,0,0,0,0,0,0,0,0,0,0,0,0,0,0,0,0,0,0,0,0,0,0,0,0,0,0,0,0,0,0,0,0,0,0,0,0,0,0,0,0,0,0,0,0,0,0,0,-0.4671,-0.467,0,-0.4575,-0.4574,-0.4573,-0.4516,-0.4516,-0.4516,-0.4516,-0.4415,-0.4413,-0.441,0,0,0,0,0,0,0,0,0,0,0,0,0,-0.4804,-0.4802,-0.4671,-0.467,-0.4669,-0.4575,-0.4574,-0.4573,-0.4517,-0.4516,-0.4516,-0.4516,-0.4416,-0.4413,-0.441,0,0,0,0,0,0,0,0,0,0,0,0,0,-0.4731,-0.4801,-0.4672,-0.463,-0.4625,-0.4575,-0.4574,-0.4572,-0.4517,-0.4516,-0.4516,-0.4516,-0.4417,-0.4413,-0.441,-0.4394,0,0,-0.4398,-0.4397,0,0,0,0,0,0,0,0,-0.4735,-0.4726,-0.4637,-0.4632,-0.4627,-0.4557,-0.4584,-0.4512,-0.4517,-0.4558,-0.4516,-0.4515,-0.4463,-0.4455,-0.4438,-0.4389,-0.4385,-0.4398,-0.4396,-0.4394,-0.4393,0,0,0,0,0,0,0,-0.474,-0.473,-0.4633,-0.4636,-0.463,-0.4615,-0.4604,-0.457,-0.4513,-0.4554,-0.455,-0.4539,-0.446,-0.4442,-0.4435,-0.4383,-0.4398,-0.4395,-0.4393,-0.4391,-0.4315,-0.4315,0,0,0,0,0,0,-0.4752,-0.4734,-0.4636,-0.463,-0.4681,-0.4613,-0.4601,-0.458,-0.4513,-0.4503,-0.454,-0.4537,-0.4448,-0.4439,-0.4431,-0.4407,-0.4394,-0.4391,-0.4389,-0.4315,-0.4315,-0.4315,0,0,0,0,0,0,-0.4755,-0.4744,-0.464,-0.4681,-0.4667,-0.4611,-0.4588,-0.4578,-0.456,-0.4503,-0.4492,-0.4532,-0.4447,-0.4436,-0.4403,-0.4403,-0.4389,-0.4386,-0.4314,-0.4315,-0.4315,-0.4359,0,0,0,0,0,0,-0.4759,-0.4746,-0.474,-0.4681,-0.4665,-0.4615,-0.4588,-0.4577,-0.4554,-0.455,-0.4492,-0.4482,-0.4446,-0.4409,-0.44,-0.4397,-0.4383,-0.4314,-0.4314,-0.4315,-0.4358,-0.4361,-0.4364,0,0,0,0,0,-0.4764,-0.4756,-0.474,-0.4728,-0.4656,-0.4615,-0.4605,-0.4565,-0.4554,-0.4547,-0.451,-0.4484,-0.4405,-0.4406,-0.4395,-0.4392,-0.4314,-0.4314,-0.4315,-0.4356,-0.436,-0.4364,0,0,0,0,0,0,-0.4815,-0.4747,-0.4729,-0.4701,-0.4664,-0.4605,-0.4595,-0.4571,-0.4535,-0.4533,-0.4483,-0.4471,-0.4442,-0.4413,-0.4416,-0.4372,-0.4356,-0.4354,-0.4392,-0.4395,-0.4398,-0.4405,-0.438,0,0,0,0,0,-0.4823,-0.4796,-0.4738,-0.4719,-0.4702,-0.4652,-0.4632,-0.4604,-0.4564,-0.4547,-0.4508,-0.4469,-0.4435,-0.4413,-0.4379,-0.4353,-0.4339,-0.4346,-0.4349,-0.4352,-0.435,-0.4333,-0.4335,-0.4316,-0.4316,-0.4316,0,0,-0.4839,-0.4799,-0.4785,-0.4728,-0.4696,-0.4668,-0.4639,-0.4611,-0.4589,-0.4543,-0.4509,-0.4479,-0.4432,-0.4402,-0.4387,-0.4377,-0.4353,-0.4352,-0.4355,-0.4352,-0.4334,-0.4336,-0.4338,-0.4317,-0.4317,-0.4317,0,0,-0.4854,-0.4821,-0.4802,-0.477,-0.4722,-0.4689,-0.4684,-0.4629,-0.4607,-0.4572,-0.4537,-0.451,-0.4453,-0.442,-0.4397,-0.4398,-0.4372,-0.4389,-0.4405,-0.4389,-0.439,-0.4392,-0.4391,-0.4392,-0.4388,-0.4388,-0.4388,0,-0.488,-0.4837,-0.4794,-0.4768,-0.4743,-0.4701,-0.468,-0.4651,-0.4594,-0.4578,-0.4569,-0.4495,-0.4461,-0.4422,-0.4423,-0.4405,-0.4397,-0.4395,-0.4394,-0.4394,-0.4395,-0.4394,-0.4394,-0.439,-0.439,-0.4389,-0.4389,0,-0.487,-0.4841,-0.4831,-0.4777,-0.4751,-0.4728,-0.4681,-0.466,-0.4634,-0.4602,-0.4566,-0.4524,-0.4479,-0.4468,-0.4443,-0.4426,-0.4421,-0.4404,-0.4386,-0.44,-0.4398,-0.4397,-0.4393,-0.4392,-0.4392,-0.4391,0,0,-0.4915,-0.4837,-0.4834,-0.4809,-0.4752,-0.4728,-0.4702,-0.4659,-0.4642,-0.4604,-0.458,-0.4532,-0.4515,-0.4488,-0.4459,-0.4445,-0.4447,-0.4428,-0.4426,-0.4433,-0.4425,-0.4438,-0.4438,-0.443,-0.443,-0.443,-0.4428,0,-0.492,-0.4872,-0.4833,-0.4799,-0.477,-0.4729,-0.4706,-0.4668,-0.4637,-0.4608,-0.4573,-0.454,-0.4521,-0.4504,-0.4488,-0.4451,-0.4445,-0.445,-0.4406,-0.4405,-0.4419,-0.4437,-0.4451,-0.4452,-0.4427,-0.4427,-0.4427,0,-0.4921,-0.4885,-0.4848,-0.4793,-0.478,-0.476,-0.4717,-0.469,-0.4646,-0.4624,-0.4594,-0.4562,-0.4532,-0.4519,-0.4475,-0.4479,-0.4459,-0.4438,-0.4437,-0.443,-0.4417,-0.4431,-0.4451,-0.4451,-0.4426,-0.4426,-0.4426,0,-0.4956,-0.4898,-0.4868,-0.4847,-0.4783,-0.477,-0.4743,-0.4698,-0.4675,-0.4637,-0.4621,-0.458,-0.4557,-0.4526,-0.4484,-0.4478,-0.4444,-0.4428,-0.4425,-0.4426,-0.4419,-0.442,-0.4435,-0.4407,-0.4407,-0.4407,-0.4407,0,-0.4966,-0.4945,-0.4882,-0.4864,-0.4838,-0.4793,-0.4769,-0.4738,-0.4699,-0.4673,-0.4635,-0.4611,-0.4558,-0.4527,-0.4494,-0.4463,-0.4453,-0.4434,-0.4425,-0.4437,-0.4439,-0.4422,-0.4421,-0.4407,-0.4407,-0.4407,-0.4407,0,-0.5,-0.4958,-0.4922,-0.4864,-0.4849,-0.4833,-0.4783,-0.4763,-0.4729,-0.4697,-0.4687,-0.4634,-0.4596,-0.4552,-0.4499,-0.4477,-0.4448,-0.4435,-0.4463,-0.4458,-0.4456,-0.4457,-0.4461,-0.4459,-0.4434,-0.4434,-0.4434,0,-0.501,-0.4992,-0.4932,-0.4912,-0.4886,-0.4854,-0.483,-0.4784,-0.476,-0.4708,-0.4694,-0.4654,-0.4619,-0.456,-0.4516,-0.4476,-0.4461,-0.4466,-0.4455,-0.4467,-0.446,-0.4462,-0.4459,-0.4469,-0.4469,-0.447,-0.447,0,-0.503,-0.5009,-0.4976,-0.4935,-0.4907,-0.4872,-0.4836,-0.4821,-0.4768,-0.4743,-0.4704,-0.4677,-0.4623,-0.4583,-0.4536,-0.4507,-0.4479,-0.4474,-0.4471,-0.4482,-0.4498,-0.4488,-0.447,-0.4474,-0.4473,-0.4473,-0.4473,-0.4473,-0.5051,-0.5033,-0.4988,-0.4952,-0.4919,-0.4886,-0.4864,-0.4828,-0.4795,-0.4748,-0.4722,-0.4684,-0.4639,-0.4574,-0.4545,-0.4514,-0.4504,-0.45,-0.4499,-0.4498,-0.4501,-0.4504,-0.4505,-0.4505,-0.4505,-0.4505,-0.4505,0,-0.5069,-0.5037,-0.5004,-0.4954,-0.4926,-0.4902,-0.4861,-0.4838,-0.4804,-0.4765,-0.4731,-0.4686,-0.4646,-0.46,-0.4557,-0.454,-0.4526,-0.4531,-0.4531,-0.4524,-0.4513,-0.4519,-0.4542,-0.4542,-0.4542,-0.4542,-0.4542,-0.4542,-0.5074,-0.5043,-0.5017,-0.4968,-0.4936,-0.4898,-0.4876,-0.4845,-0.4813,-0.4764,-0.4731,-0.4701,-0.4659,-0.4612,-0.4575,-0.4562,-0.4547,-0.4555,-0.4539,-0.4529,-0.4525,-0.4522,-0.4528,-0.4553,-0.4553,-0.4553,-0.4553,-0.4553]},{"header":{"parameterUnit":"m.s-1","parameterCategory":1,"la1":30.2991,"la2":30.254,"lo1":-89.0895,"lo2":-89.0444,"dy":0.0017,"dx":0.0017,"nx":28,"ny":28,"refTime":"2024-05-25T03:00:00:Z","depth":0,"parameterNumber":3,"parameterNumberName":"V-component_of_WINDS"},"data":[0,0,0,0,0,0,0,0,0,0,0,0,0,0,0,0,0,0,0,0,0,0,0,0,0,0,0,0,0,0,0,0,0,0,0,0,0,0,0,0,0,0,0,0,0,0,0,0,0,0,0,0,0,0,0,0,0,0,5.636,5.6359,0,5.6284,5.6283,5.6282,5.622,5.622,5.6219,5.6219,5.6135,5.6134,5.6132,0,0,0,0,0,0,0,0,0,0,0,0,0,5.645,5.6448,5.636,5.6359,5.6358,5.6284,5.6283,5.6282,5.6221,5.622,5.6219,5.6218,5.6136,5.6134,5.6132,0,0,0,0,0,0,0,0,0,0,0,0,0,5.6396,5.6448,5.636,5.6319,5.6314,5.6284,5.6283,5.6282,5.6221,5.622,5.6219,5.6218,5.6137,5.6134,5.6132,5.6135,0,0,5.6124,5.6123,0,0,0,0,0,0,0,0,5.6399,5.6392,5.6326,5.6322,5.6317,5.6261,5.6284,5.6232,5.6221,5.6256,5.6219,5.6217,5.6178,5.6172,5.6159,5.6131,5.6128,5.6124,5.6123,5.6122,5.6121,0,0,0,0,0,0,0,5.6403,5.6395,5.633,5.6325,5.6319,5.6303,5.6294,5.6274,5.6223,5.6253,5.6248,5.624,5.6175,5.6162,5.6157,5.6127,5.6124,5.6122,5.612,5.6119,5.6101,5.6102,0,0,0,0,0,0,5.6413,5.6399,5.6332,5.6328,5.6356,5.6302,5.6293,5.628,5.6223,5.6213,5.6241,5.6238,5.6166,5.616,5.6154,5.6156,5.6122,5.6119,5.6118,5.61,5.6101,5.6102,0,0,0,0,0,0,5.6416,5.6408,5.6335,5.6362,5.6352,5.6302,5.6288,5.6279,5.6266,5.6214,5.6204,5.6238,5.6165,5.6157,5.6141,5.6152,5.6118,5.6116,5.6099,5.61,5.6102,5.616,0,0,0,0,0,0,5.6418,5.6409,5.641,5.6363,5.635,5.6325,5.6288,5.6278,5.6262,5.6257,5.6208,5.6199,5.6164,5.6145,5.6139,5.6148,5.6114,5.6097,5.6099,5.6101,5.6157,5.6163,5.6168,0,0,0,0,0,5.6422,5.6428,5.6411,5.6403,5.6351,5.6326,5.6319,5.628,5.6263,5.6264,5.6231,5.6201,5.6152,5.6144,5.6136,5.6145,5.6097,5.6099,5.6101,5.6154,5.6162,5.6168,0,0,0,0,0,0,5.6475,5.6421,5.6401,5.6392,5.6365,5.6316,5.6315,5.6289,5.6264,5.626,5.6211,5.6201,5.6191,5.6166,5.6158,5.6147,5.6121,5.6121,5.6163,5.617,5.6176,5.6182,5.6112,0,0,0,0,0,5.6487,5.6472,5.6425,5.6421,5.6409,5.6365,5.6352,5.6325,5.6294,5.6281,5.6247,5.6217,5.6195,5.6181,5.6158,5.6153,5.6142,5.6155,5.6161,5.6166,5.6168,5.6166,5.6171,5.6109,5.6109,5.6109,0,0,5.6509,5.6477,5.647,5.6432,5.6407,5.6392,5.6355,5.634,5.6329,5.6278,5.6262,5.6237,5.6199,5.619,5.6184,5.6169,5.6183,5.6169,5.6174,5.6172,5.6168,5.6174,5.618,5.6111,5.611,5.611,0,0,5.6542,5.6517,5.6512,5.649,5.6454,5.6425,5.6425,5.638,5.6362,5.6346,5.6308,5.6294,5.6256,5.6233,5.6216,5.6244,5.6216,5.6238,5.6269,5.6267,5.6272,5.6276,5.6288,5.6293,5.6239,5.6239,5.624,0,5.6574,5.6552,5.6513,5.6502,5.6487,5.6443,5.6438,5.6417,5.6375,5.6365,5.635,5.6305,5.6277,5.6262,5.627,5.6257,5.6255,5.6243,5.6275,5.6279,5.6282,5.6293,5.6297,5.6242,5.6242,5.6242,5.6242,0,5.6593,5.6579,5.6579,5.6543,5.6528,5.652,5.648,5.6469,5.6444,5.6417,5.6402,5.6367,5.6338,5.6332,5.6306,5.6315,5.6307,5.6284,5.6256,5.6292,5.6301,5.6304,5.6247,5.6246,5.6245,5.6244,0,0,5.6656,5.6601,5.6602,5.6586,5.6546,5.6533,5.6524,5.6498,5.649,5.6463,5.6454,5.6426,5.6406,5.6387,5.6358,5.6357,5.6384,5.6334,5.6332,5.6346,5.6394,5.6412,5.6417,5.6366,5.6366,5.6367,5.6397,0,5.6683,5.6666,5.6633,5.6626,5.6613,5.6573,5.6565,5.6539,5.6515,5.6499,5.6471,5.6453,5.6426,5.6415,5.6412,5.6382,5.6394,5.6379,5.6357,5.6357,5.6368,5.6422,5.644,5.6471,5.6401,5.6401,5.6402,0,5.6712,5.6691,5.6684,5.6647,5.6641,5.6634,5.6609,5.6595,5.6565,5.6548,5.6529,5.6499,5.6487,5.6463,5.6447,5.6438,5.6427,5.6411,5.6412,5.6408,5.6381,5.642,5.6479,5.6484,5.6407,5.6406,5.6406,0,5.676,5.673,5.6723,5.671,5.6667,5.6664,5.6645,5.6615,5.6602,5.658,5.6571,5.6547,5.6534,5.6516,5.648,5.6465,5.6469,5.6441,5.6454,5.6455,5.6456,5.6456,5.6515,5.6449,5.6449,5.6448,5.6448,0,5.6795,5.6792,5.6744,5.674,5.6737,5.6698,5.6696,5.6673,5.6647,5.6638,5.6601,5.6592,5.6546,5.6532,5.6504,5.6497,5.649,5.6476,5.6468,5.6479,5.6481,5.6471,5.6469,5.645,5.6449,5.6449,5.6449,0,5.6847,5.6815,5.6805,5.6766,5.6756,5.6756,5.6722,5.6716,5.6691,5.6679,5.6674,5.6634,5.6616,5.6579,5.655,5.6532,5.6531,5.6517,5.6542,5.6537,5.6553,5.6553,5.6607,5.6613,5.6543,5.6544,5.6545,0,5.6872,5.6869,5.6831,5.6824,5.6807,5.6794,5.6783,5.6745,5.6734,5.6703,5.6701,5.6681,5.6663,5.6637,5.6604,5.6583,5.6569,5.659,5.6565,5.6578,5.6571,5.6572,5.6572,5.6595,5.6596,5.6597,5.6598,0,5.6918,5.6904,5.6888,5.6869,5.6857,5.6838,5.6818,5.6814,5.6772,5.6761,5.6744,5.6731,5.6704,5.6685,5.666,5.6639,5.6612,5.6606,5.6608,5.6619,5.6634,5.6628,5.6558,5.6604,5.6604,5.6603,5.6603,5.6603,5.6958,5.6955,5.6929,5.6915,5.6897,5.688,5.6873,5.6849,5.6834,5.6811,5.679,5.6775,5.6748,5.6712,5.6694,5.6682,5.6668,5.6671,5.6671,5.6673,5.6679,5.6637,5.6677,5.6677,5.6676,5.6676,5.6676,0,5.7004,5.6986,5.6973,5.6948,5.6937,5.6915,5.6893,5.6884,5.6873,5.6851,5.6835,5.6817,5.6799,5.6767,5.6747,5.6744,5.6731,5.6739,5.6739,5.6736,5.6691,5.6692,5.6751,5.6751,5.6751,5.675,5.675,5.675,5.7027,5.7022,5.7005,5.6991,5.6973,5.696,5.6949,5.6934,5.6917,5.6899,5.6885,5.6865,5.6839,5.6817,5.6801,5.6791,5.6786,5.6799,5.6786,5.6745,5.6738,5.6732,5.6732,5.6798,5.6798,5.6832,5.6832,5.6833]}]]